Location: Stanford
(52.2833°N, 2.4333°W)
Time: 02:04:35
(UTC+00:00)

Cosmos 2098 Rocket - Pass Details

Date: 22 January 2021
Orbit: 366 x 1182 km, 82.9° (Epoch: 28 February)

Event Time Altitude Azimuth Distance (km) Brightness Sun altitude
Rises 18:55:19 0° 172° (S) 3,918 7.1 -20.4°
Reaches altitude 10° 18:57:54 10° 168° (SSE) 3,024 6.5 -20.8°
Maximum altitude 19:05:00 59° 92° (E) 1,350 4.4 -21.9°
Drops below altitude 10° 19:12:12 10° 16° (NNE) 3,068 6.4 -23.0°
Sets 19:14:51 0° 13° (NNE) 3,979 7.0 -23.4°
